User: anonymous   Login
Location: Nirvana
(45.0297°N, 77.2628°W)
Time: 00:05:05
(UTC-04:00)
Language:

H-2A R/B - Orbit

View from above orbital plane
View from above orbital plane
View from above satellite
View from above satellite

Ground track
Ground track

The orbit data is extracted from the following two-line orbital elements,

1 27601U 02056E   18170.14046031 +.00000025 +00000-0 +24666-4 0  9990
2 27601 098.3274 229.2897 0070901 286.9298 125.2736 14.31842843810329
Epoch (UTC): 19 June 2018 03:22:15
Eccentricity: 0.0070901
inclination: 98.3274°
perigee height: 735 km
apogee height: 836 km
right ascension of ascending node: 229.2897°
argument of perigee: 286.9298°
revolutions per day: 14.31842843
mean anomaly at epoch: 125.2736°
orbit number at epoch: 81032

The dashed part of the orbit path shows where the satellite is in the earth's shadow,  

DLR